Flag for Romania Weather past 2 weeks in Târgu Mureş, Romania

Now
52 °F

Passing clouds.


Feels Like: 51 °F
Forecast: 50 / 79 °F
Wind: 5 mph from East

Location: Tirgu Mures Airport

Current Time: May 4, 2015 at 6:03:09 AM

Latest Report: May 4, 2015 at 5:30 AM


Visibility: N/A

Pressure: 29.95 "Hg

Humidity: 94%

Dew point: 50 °F

Location of Târgu MureşLocation

Historic Weather in Târgu Mureş — Graph

°F

Târgu Mureş temperature yesterday

Maximum temperature yesterday: 68 °F (at 4:00 PM)
Minimum temperature yesterday: 52 °F (at 4:00 AM)
Average temperature yesterday: 59 °F

Past Weeks' High & Low Weather Summary

 TemperatureHumidityPressure
High77 °F (Apr 27, 4:00 PM)100% (Apr 28, 11:00 PM)30.21 "Hg (Apr 28, 11:00 PM)
Low27 °F (Apr 23, 6:30 AM)19% (Apr 24, 5:30 PM)29.71 "Hg (Apr 28, 4:00 PM)
Average53 °F66%29.96 "Hg
* Reported Apr 19 4:00 AM — May 4 4:00 AM, Târgu Mureş, Weather by CustomWeather, © 2015

Note: Actual official high and low records may vary slightly from our data, if they occured in-between our weather recording intervals... More about our weather records

Advertising

Târgu Mureş weather history for previous 24 hours

 ConditionsComfort  
Time TempWeatherWind HumidityBarometerVisibility
4:00 AM
Mon, May 4
52 °FPassing clouds.5 mph88%29.95 "HgN/A
3:00 AM52 °FPassing clouds.3 mph88%29.98 "HgN/A
2:00 AM52 °FPassing clouds.6 mph88%29.98 "HgN/A
1:00 AM52 °FClear.2 mph94%29.98 "Hg10 mi
12:00 AM54 °FClear.No wind88%29.98 "Hg10 mi
11:00 PM
Sun, May 3
54 °FClear.2 mph88%29.98 "Hg10 mi
10:00 PM55 °FClear.No wind82%29.95 "Hg10 mi
9:00 PM57 °FSunny.No wind72%29.95 "Hg10 mi
8:30 PM59 °FPassing clouds.No wind68%29.95 "HgN/A
8:00 PM63 °FPassing clouds.1 mph64%29.95 "HgN/A
7:30 PM66 °FPassing clouds.2 mph49%29.95 "HgN/A
7:00 PM66 °FPassing clouds.5 mph49%29.92 "HgN/A
6:30 PM66 °FScattered clouds.7 mph49%29.92 "HgN/A
6:00 PM66 °FScattered clouds.3 mph49%29.92 "HgN/A
5:30 PM64 °FScattered clouds.6 mph52%29.95 "HgN/A
5:00 PM66 °FScattered clouds.3 mph52%29.95 "HgN/A
4:30 PM64 °FScattered clouds.3 mph52%29.95 "HgN/A
4:00 PM68 °FScattered clouds.8 mph46%29.95 "HgN/A
3:30 PM66 °FScattered clouds.7 mph46%29.95 "HgN/A
3:00 PM64 °FScattered clouds.8 mph52%29.95 "HgN/A
2:30 PM64 °FScattered clouds.6 mph49%29.95 "HgN/A
2:00 PM64 °FScattered clouds.7 mph56%29.95 "HgN/A
1:30 PM64 °FScattered clouds.3 mph60%29.95 "HgN/A
1:00 PM63 °FScattered clouds.7 mph59%29.95 "HgN/A
12:30 PM63 °FScattered clouds.10 mph64%29.95 "HgN/A
12:00 PM59 °FScattered clouds.8 mph68%29.95 "HgN/A
11:30 AM59 °FScattered clouds.7 mph68%29.95 "HgN/A
11:00 AM59 °FScattered clouds.9 mph68%29.95 "HgN/A
10:30 AM57 °FScattered clouds.9 mph77%29.95 "HgN/A
10:00 AM55 °FScattered clouds.8 mph82%29.95 "HgN/A
9:30 AM54 °FPartly sunny.9 mph82%29.92 "HgN/A
9:00 AM54 °FScattered clouds.10 mph82%29.92 "HgN/A
8:30 AM54 °FBroken clouds.9 mph82%29.92 "HgN/A
8:00 AM54 °FPartly sunny.9 mph82%29.92 "HgN/A
7:30 AM54 °FPartly sunny.8 mph82%29.89 "HgN/A
7:00 AM52 °FPassing clouds.6 mph88%29.89 "HgN/A
6:30 AM52 °FPassing clouds.7 mph94%29.89 "HgN/A
Weather by CustomWeather, © 2015

See weather overviewHow to use our weather pages